Mount Shasta, CA

9:31 AM PDT on June 25, 2018 (GMT -0700)
Mount Shasta

Weather History for KMHS - October, 2017

Change the Weather History Date:

Tuesday, October 10, 2017

  Actual Average Record
Temperature  
Mean Temperature 51 °F 54 °F  
Max Temperature 67 °F 69 °F 88 °F (1936)
Min Temperature 35 °F 38 °F 24 °F (1985)
Degree Days  
Heating Degree Days 14 11  
Month to date heating degree days 140 100  
Since 1 July heating degree days 295 337  
Cooling Degree Days 0 0  
Month to date cooling degree days 0 0  
Year to date cooling degree days 700 287  
Moisture  
Dew Point 28 °F    
Average Humidity 46    
Maximum Humidity 70    
Minimum Humidity 26    
Precipitation  
Precipitation 0.00 in 0.05 in 1.63 in (1962)
Month to date precipitation 0.00 0.37  
Year to date precipitation 38.99 28.37  
Sea Level Pressure  
Sea Level Pressure 30.01 in    
Wind  
Wind Speed 2 mph (East)    
Max Wind Speed 9 mph    
Max Gust Speed 17 mph    
Visibility 7 miles    
Events      
T = Trace of Precipitation, MM = Missing Value Source: NWS Daily Summary

Daily Weather History Graph

Daily Weather History Graph

Search for Another Location

Airport or City:

Astronomy

Oct. 10, 2017 Rise Set
Actual Time 7:15 AM PDT 6:35 PM PDT
Civil Twilight 6:48 AM PDT 7:03 PM PDT
Nautical Twilight 6:16 AM PDT 7:35 PM PDT
Astronomical Twilight 5:44 AM PDT 8:07 PM PDT
Moon 10:42 PM PDT (10/10) 12:39 PM PDT (10/10)
Length of Visible Light 12h 15m
Length of Day
11h 19m
Waning Gibbous, 70% of the Moon is Illuminated
Oct 10
Waning Gibbous
Oct 12
Last Quarter
Oct 19
New
Oct 27
First Quarter
Nov 3
Full

Hourly Weather History & Observations

Time (PDT) Temp. Windchill Dew Point Humidity Pressure Visibility Wind Dir Wind Speed Gust Speed Precip Events Conditions
12:56 AM 39.9 °F 37.8 °F 24.1 °F 53% 30.06 in 10.0 mi ENE 3.5 mph - N/A   Clear
1:56 AM 37.9 °F - 24.1 °F 57% 30.05 in 10.0 mi Calm Calm - N/A   Clear
2:56 AM 37.9 °F - 23.0 °F 55% 30.04 in 10.0 mi Calm Calm - N/A   Clear
3:56 AM 36.0 °F 33.3 °F 24.1 °F 62% 30.04 in 10.0 mi ENE 3.5 mph - N/A   Clear
4:56 AM 36.0 °F - 26.1 °F 67% 30.05 in 10.0 mi Calm Calm - N/A   Clear
5:56 AM 35.1 °F - 27.0 °F 72% 30.06 in 10.0 mi Calm Calm - N/A   Clear
6:56 AM 36.0 °F - 26.1 °F 67% 30.07 in 10.0 mi Calm Calm - N/A   Clear
7:56 AM 37.0 °F - 28.9 °F 73% 30.08 in 8.0 mi Calm Calm - N/A   Clear
8:56 AM 42.1 °F - 30.9 °F 65% 30.07 in 8.0 mi Calm Calm - N/A   Clear
9:56 AM 57.0 °F - 32.0 °F 39% 30.04 in 10.0 mi Variable 3.5 mph - N/A   Partly Cloudy
10:56 AM 59.0 °F - 30.9 °F 35% 30.04 in 5.0 mi Variable 3.5 mph - N/A   Haze
11:56 AM 60.1 °F - 30.0 °F 32% 30.02 in 2.5 mi Calm Calm - N/A   Haze
12:35 PM 62.1 °F - 30.0 °F 30% 29.99 in 3.0 mi Variable 3.5 mph - N/A   Haze
12:56 PM 63.0 °F - 28.9 °F 28% 30.01 in 4.0 mi Variable 3.5 mph - N/A   Haze
1:56 PM 64.9 °F - 28.0 °F 25% 29.98 in 5.0 mi Variable 3.5 mph - N/A   Haze
2:56 PM 64.9 °F - 28.9 °F 26% 29.96 in 6.0 mi ESE 4.6 mph - N/A   Haze
3:56 PM 64.9 °F - 28.0 °F 25% 29.95 in 5.0 mi SE 3.5 mph - N/A   Haze
4:56 PM 64.0 °F - 28.0 °F 26% 29.95 in 6.0 mi Calm Calm - N/A   Haze
5:56 PM 61.0 °F - 28.0 °F 29% 29.95 in 6.0 mi Calm Calm - N/A   Haze
6:56 PM 57.9 °F - 28.9 °F 33% 29.95 in 8.0 mi Calm Calm - N/A   Clear
7:56 PM 55.0 °F - 30.9 °F 40% 29.96 in 8.0 mi ENE 3.5 mph - N/A   Clear
8:56 PM 46.0 °F - 33.1 °F 61% 29.97 in 7.0 mi Calm Calm - N/A   Partly Cloudy
9:56 PM 48.0 °F - 28.9 °F 48% 29.94 in 5.0 mi Calm Calm - N/A   Haze
10:56 PM 48.0 °F - 28.9 °F 48% 29.95 in 6.0 mi Variable 5.8 mph - N/A   Haze
11:56 PM 46.0 °F 44.8 °F 30.9 °F 56% 29.96 in 8.0 mi Variable 3.5 mph - N/A   Clear